Location: Saluda
(35.2377°N, 82.3468°W)
Time: 20:38:50
(UTC+00:00)

Vanguard 3 - Pass Details

Date: 12 October 2022
Orbit: 509 x 3255 km, 33.3° (Epoch: 01 December)

Event Time Altitude Azimuth Distance (km) Brightness Sun altitude
Rises 13:17:08 0° 268° (W) 2,641 9.3 19.5°
Reaches altitude 10° 13:19:17 10° 266° (W) 1,715 8.4 19.9°
Maximum altitude 13:22:54 67° 183° (S) 579 6.9 20.5°
Drops below altitude 10° 13:27:14 10° 101° (E) 2,040 10.9 21.3°
Sets 13:30:00 0° 98° (E) 3,212 11.5 21.8°
